Time,TemperatureF,DewpointF,PressureIn,WindDirection,WindDirectionDegrees,WindSpeedMPH,WindSpeedGustMPH,Humidity,HourlyPrecipIn,Conditions,Clouds,dailyrainin,SoftwareType,DateUTC
2013-08-17 00:01:00,55.7,54.6,30.16,NNE,18,0.0,0.0,96,0.00,,,0.00,Wunderground v.1.13,2013-08-17 04:01:00,
2013-08-17 00:06:00,55.4,54.3,30.16,NNE,18,0.0,0.0,96,0.00,,,0.00,Wunderground v.1.13,2013-08-17 04:06:00,
2013-08-17 00:11:00,55.2,54.1,30.16,NNE,18,0.0,0.0,96,0.00,,,0.00,Wunderground v.1.13,2013-08-17 04:11:00,
2013-08-17 00:16:00,55.2,54.1,30.16,NNE,18,0.0,0.0,96,0.00,,,0.00,Wunderground v.1.13,2013-08-17 04:16:00,
2013-08-17 00:21:00,55.1,54.0,30.17,NNE,18,0.0,0.0,96,0.00,,,0.00,Wunderground v.1.13,2013-08-17 04:21:00,
2013-08-17 00:26:00,55.0,53.9,30.17,NNE,18,0.0,0.0,96,0.00,,,0.00,Wunderground v.1.13,2013-08-17 04:26:00,
2013-08-17 00:31:00,54.8,53.7,30.17,NNE,18,0.0,0.0,96,0.00,,,0.00,Wunderground v.1.13,2013-08-17 04:31:00,
2013-08-17 00:36:00,54.7,53.6,30.17,NNE,18,0.0,0.0,96,0.00,,,0.00,Wunderground v.1.13,2013-08-17 04:36:00,
2013-08-17 00:41:00,54.6,53.5,30.17,NNE,18,0.0,0.0,96,0.00,,,0.00,Wunderground v.1.13,2013-08-17 04:41:00,
2013-08-17 00:46:00,54.5,53.4,30.17,NNE,18,0.0,0.0,96,0.00,,,0.00,Wunderground v.1.13,2013-08-17 04:46:00,
2013-08-17 00:51:00,54.2,53.1,30.17,NNE,18,0.0,0.0,96,0.00,,,0.00,Wunderground v.1.13,2013-08-17 04:51:00,
2013-08-17 00:56:00,54.2,53.4,30.17,NNE,18,0.0,0.0,97,0.00,,,0.00,Wunderground v.1.13,2013-08-17 04:56:00,
2013-08-17 01:02:00,54.1,53.0,30.17,NNE,18,0.0,0.0,96,0.00,,,0.00,Wunderground v.1.13,2013-08-17 05:02:00,
2013-08-17 01:08:00,54.1,53.0,30.17,NNE,18,0.0,0.0,96,0.00,,,0.00,Wunderground v.1.13,2013-08-17 05:08:00,
2013-08-17 01:14:00,54.1,53.3,30.17,NNE,18,0.0,0.0,97,0.00,,,0.00,Wunderground v.1.13,2013-08-17 05:14:00,
2013-08-17 01:19:00,53.9,53.1,30.17,NNE,18,0.0,0.0,97,0.00,,,0.00,Wunderground v.1.13,2013-08-17 05:19:00,
2013-08-17 01:25:00,53.9,53.1,30.17,NNE,18,0.0,0.0,97,0.00,,,0.00,Wunderground v.1.13,2013-08-17 05:25:00,
2013-08-17 01:31:00,53.9,53.1,30.17,NNE,18,0.0,0.0,97,0.00,,,0.00,Wunderground v.1.13,2013-08-17 05:31:00,
2013-08-17 01:37:00,53.9,53.1,30.17,NNE,18,0.0,0.0,97,0.00,,,0.00,Wunderground v.1.13,2013-08-17 05:37:00,
2013-08-17 01:43:00,53.9,53.1,30.17,NNE,18,0.0,0.0,97,0.00,,,0.00,Wunderground v.1.13,2013-08-17 05:43:00,
2013-08-17 01:49:00,53.7,52.9,30.17,NNE,18,0.0,0.0,97,0.00,,,0.00,Wunderground v.1.13,2013-08-17 05:49:00,
2013-08-17 01:55:00,53.4,52.6,30.18,NNE,18,0.0,0.0,97,0.00,,,0.00,Wunderground v.1.13,2013-08-17 05:55:00,
2013-08-17 02:01:00,53.4,52.6,30.18,NNE,18,0.0,0.0,97,0.00,,,0.00,Wunderground v.1.13,2013-08-17 06:01:00,
2013-08-17 02:06:00,53.3,52.5,30.18,NNE,18,0.0,0.0,97,0.00,,,0.00,Wunderground v.1.13,2013-08-17 06:06:00,
2013-08-17 02:12:00,53.2,52.4,30.18,NNE,18,0.0,0.0,97,0.00,,,0.00,Wunderground v.1.13,2013-08-17 06:12:00,
2013-08-17 02:18:00,53.0,52.2,30.18,NNE,18,0.0,0.0,97,0.00,,,0.00,Wunderground v.1.13,2013-08-17 06:18:00,
2013-08-17 02:24:00,53.0,52.2,30.18,NNE,18,0.0,0.0,97,0.00,,,0.00,Wunderground v.1.13,2013-08-17 06:24:00,
2013-08-17 02:30:00,53.0,52.2,30.18,NNE,18,0.0,0.0,97,0.00,,,0.00,Wunderground v.1.13,2013-08-17 06:30:00,
2013-08-17 02:36:00,52.9,52.1,30.17,NNE,18,0.0,0.0,97,0.00,,,0.00,Wunderground v.1.13,2013-08-17 06:36:00,
2013-08-17 02:42:00,52.8,52.0,30.18,NNE,18,0.0,0.0,97,0.00,,,0.00,Wunderground v.1.13,2013-08-17 06:42:00,
2013-08-17 02:48:00,52.6,51.8,30.17,NNE,18,0.0,0.0,97,0.00,,,0.00,Wunderground v.1.13,2013-08-17 06:48:00,
2013-08-17 02:53:00,52.4,51.6,30.17,NNE,18,0.0,0.0,97,0.00,,,0.00,Wunderground v.1.13,2013-08-17 06:53:00,
2013-08-17 02:59:00,52.4,51.6,30.17,NNE,18,0.0,0.0,97,0.00,,,0.00,Wunderground v.1.13,2013-08-17 06:59:00,
2013-08-17 03:04:00,52.3,51.5,30.16,NNE,18,0.0,0.0,97,0.00,,,0.00,Wunderground v.1.13,2013-08-17 07:04:00,
2013-08-17 03:09:00,52.4,51.6,30.17,NNE,18,0.0,0.0,97,0.00,,,0.00,Wunderground v.1.13,2013-08-17 07:09:00,
2013-08-17 03:14:00,52.3,51.5,30.17,NNE,18,0.0,0.0,97,0.00,,,0.00,Wunderground v.1.13,2013-08-17 07:14:00,
2013-08-17 03:19:00,52.1,51.3,30.17,NNE,18,0.0,0.0,97,0.00,,,0.00,Wunderground v.1.13,2013-08-17 07:19:00,
2013-08-17 03:24:00,51.9,51.1,30.17,NNE,18,0.0,0.0,97,0.00,,,0.00,Wunderground v.1.13,2013-08-17 07:24:00,
2013-08-17 03:29:00,51.8,51.0,30.18,NNE,18,0.0,0.0,97,0.00,,,0.00,Wunderground v.1.13,2013-08-17 07:29:00,
2013-08-17 03:34:00,51.8,51.0,30.18,NNE,18,0.0,0.0,97,0.00,,,0.00,Wunderground v.1.13,2013-08-17 07:34:00,
2013-08-17 03:39:00,51.8,51.0,30.18,NNE,18,0.0,0.0,97,0.00,,,0.00,Wunderground v.1.13,2013-08-17 07:39:00,
2013-08-17 03:44:00,51.9,51.1,30.18,NNE,18,0.0,0.0,97,0.00,,,0.00,Wunderground v.1.13,2013-08-17 07:44:00,
2013-08-17 03:49:00,51.9,51.1,30.18,NNE,18,0.0,0.0,97,0.00,,,0.00,Wunderground v.1.13,2013-08-17 07:49:00,
2013-08-17 03:54:00,51.8,51.0,30.18,NNE,18,0.0,0.0,97,0.00,,,0.00,Wunderground v.1.13,2013-08-17 07:54:00,
2013-08-17 03:59:00,51.8,51.0,30.18,NNE,18,0.0,0.0,97,0.00,,,0.00,Wunderground v.1.13,2013-08-17 07:59:00,
2013-08-17 04:04:00,51.7,50.9,30.18,NNE,18,0.0,0.0,97,0.00,,,0.00,Wunderground v.1.13,2013-08-17 08:04:00,
2013-08-17 04:09:00,51.7,50.9,30.18,NNE,18,0.0,1.0,97,0.00,,,0.00,Wunderground v.1.13,2013-08-17 08:09:00,
2013-08-17 04:14:00,51.7,50.9,30.18,NNE,18,0.0,0.0,97,0.00,,,0.00,Wunderground v.1.13,2013-08-17 08:14:00,
2013-08-17 04:19:00,51.6,50.8,30.18,NNE,18,0.0,1.0,97,0.00,,,0.00,Wunderground v.1.13,2013-08-17 08:19:00,
2013-08-17 04:24:00,51.6,50.8,30.19,NNE,18,0.0,0.0,97,0.00,,,0.00,Wunderground v.1.13,2013-08-17 08:24:00,
2013-08-17 04:29:00,51.7,50.9,30.19,NNE,18,0.0,1.0,97,0.00,,,0.00,Wunderground v.1.13,2013-08-17 08:29:00,
2013-08-17 04:34:00,51.7,50.9,30.19,NNE,18,0.0,1.0,97,0.00,,,0.00,Wunderground v.1.13,2013-08-17 08:34:00,
2013-08-17 04:39:00,51.7,50.9,30.19,NNE,18,0.0,1.0,97,0.00,,,0.00,Wunderground v.1.13,2013-08-17 08:39:00,
2013-08-17 04:44:00,51.8,51.0,30.19,NNE,18,0.0,1.0,97,0.00,,,0.00,Wunderground v.1.13,2013-08-17 08:44:00,
2013-08-17 04:49:00,51.7,50.9,30.19,NNE,18,0.0,1.0,97,0.00,,,0.00,Wunderground v.1.13,2013-08-17 08:49:00,
2013-08-17 04:54:00,51.7,50.9,30.20,NNE,18,0.0,1.0,97,0.00,,,0.00,Wunderground v.1.13,2013-08-17 08:54:00,
2013-08-17 04:59:00,51.7,50.9,30.19,NNE,18,0.0,1.0,97,0.00,,,0.00,Wunderground v.1.13,2013-08-17 08:59:00,
2013-08-17 05:04:00,51.8,51.0,30.19,NNE,18,0.0,0.0,97,0.00,,,0.00,Wunderground v.1.13,2013-08-17 09:04:00,
2013-08-17 05:09:00,51.8,51.0,30.19,NNE,18,0.0,0.0,97,0.00,,,0.00,Wunderground v.1.13,2013-08-17 09:09:00,
2013-08-17 05:14:00,51.8,51.0,30.20,NNE,18,0.0,0.0,97,0.00,,,0.00,Wunderground v.1.13,2013-08-17 09:14:00,
2013-08-17 05:19:00,51.8,51.0,30.20,NNE,18,0.0,3.0,97,0.00,,,0.00,Wunderground v.1.13,2013-08-17 09:19:00,
2013-08-17 05:24:00,51.7,50.9,30.20,NE,44,0.0,5.0,97,0.00,,,0.00,Wunderground v.1.13,2013-08-17 09:24:00,
2013-08-17 05:29:00,51.8,51.0,30.20,NE,44,0.0,2.0,97,0.00,,,0.00,Wunderground v.1.13,2013-08-17 09:29:00,
2013-08-17 05:34:00,51.9,51.1,30.20,NE,55,3.0,4.0,97,0.00,,,0.00,Wunderground v.1.13,2013-08-17 09:34:00,
2013-08-17 05:39:00,52.0,51.2,30.20,ENE,63,0.0,1.0,97,0.00,,,0.00,Wunderground v.1.13,2013-08-17 09:39:00,
2013-08-17 05:44:00,52.1,51.3,30.20,ENE,63,0.0,2.0,97,0.00,,,0.00,Wunderground v.1.13,2013-08-17 09:44:00,
2013-08-17 05:49:00,52.2,51.4,30.20,ENE,67,0.0,4.0,97,0.00,,,0.00,Wunderground v.1.13,2013-08-17 09:49:00,
2013-08-17 05:54:00,52.3,51.5,30.21,ENE,67,0.0,2.0,97,0.00,,,0.00,Wunderground v.1.13,2013-08-17 09:54:00,
2013-08-17 05:59:00,52.4,51.6,30.21,ENE,74,0.0,4.0,97,0.00,,,0.00,Wunderground v.1.13,2013-08-17 09:59:00,
2013-08-17 06:04:00,52.6,51.8,30.21,SE,132,0.0,8.0,97,0.00,,,0.00,Wunderground v.1.13,2013-08-17 10:04:00,
2013-08-17 06:09:00,52.8,52.0,30.21,SE,132,1.0,2.0,97,0.00,,,0.00,Wunderground v.1.13,2013-08-17 10:09:00,
2013-08-17 06:14:00,53.0,52.2,30.21,SE,144,0.0,6.0,97,0.00,,,0.00,Wunderground v.1.13,2013-08-17 10:14:00,
2013-08-17 06:19:00,53.0,52.2,30.21,SE,144,0.0,2.0,97,0.00,,,0.00,Wunderground v.1.13,2013-08-17 10:19:00,
2013-08-17 06:24:00,53.0,52.2,30.21,SE,144,0.0,4.0,97,0.00,,,0.00,Wunderground v.1.13,2013-08-17 10:24:00,
2013-08-17 06:29:00,53.0,52.2,30.21,SE,144,0.0,1.0,97,0.00,,,0.00,Wunderground v.1.13,2013-08-17 10:29:00,
2013-08-17 06:34:00,52.9,52.1,30.21,SE,144,2.0,4.0,97,0.00,,,0.00,Wunderground v.1.13,2013-08-17 10:34:00,
2013-08-17 06:39:00,52.9,52.1,30.21,SE,144,2.0,5.0,97,0.00,,,0.00,Wunderground v.1.13,2013-08-17 10:39:00,
2013-08-17 06:44:00,52.9,52.1,30.21,SE,144,5.0,5.0,97,0.00,,,0.00,Wunderground v.1.13,2013-08-17 10:44:00,
2013-08-17 06:49:00,52.9,52.1,30.21,SE,144,0.0,5.0,97,0.00,,,0.00,Wunderground v.1.13,2013-08-17 10:49:00,
2013-08-17 06:54:00,53.0,52.2,30.21,SE,144,0.0,1.0,97,0.00,,,0.00,Wunderground v.1.13,2013-08-17 10:54:00,
2013-08-17 06:59:00,53.0,52.2,30.22,SE,144,0.0,1.0,97,0.00,,,0.00,Wunderground v.1.13,2013-08-17 10:59:00,
2013-08-17 07:04:00,53.0,52.2,30.21,SE,144,0.0,1.0,97,0.00,,,0.00,Wunderground v.1.13,2013-08-17 11:04:00,
2013-08-17 07:09:00,53.1,52.3,30.21,SE,144,0.0,1.0,97,0.00,,,0.00,Wunderground v.1.13,2013-08-17 11:09:00,
2013-08-17 07:14:00,53.2,52.4,30.22,SE,144,0.0,4.0,97,0.00,,,0.00,Wunderground v.1.13,2013-08-17 11:14:00,
2013-08-17 07:19:00,53.5,52.9,30.22,SE,136,0.0,9.0,98,0.00,,,0.00,Wunderground v.1.13,2013-08-17 11:19:00,
2013-08-17 07:24:00,53.7,52.9,30.22,SE,136,2.0,7.0,97,0.00,,,0.00,Wunderground v.1.13,2013-08-17 11:24:00,
2013-08-17 07:29:00,54.1,53.5,30.22,SE,136,0.0,6.0,98,0.00,,,0.00,Wunderground v.1.13,2013-08-17 11:29:00,
2013-08-17 07:34:00,54.4,53.8,30.22,SE,132,0.0,5.0,98,0.00,,,0.00,Wunderground v.1.13,2013-08-17 11:34:00,
2013-08-17 07:39:00,54.7,54.1,30.22,SE,133,0.0,7.0,98,0.00,,,0.00,Wunderground v.1.13,2013-08-17 11:39:00,
2013-08-17 07:44:00,54.8,54.2,30.22,SE,133,0.0,1.0,98,0.00,,,0.00,Wunderground v.1.13,2013-08-17 11:44:00,
2013-08-17 07:49:00,55.1,54.5,30.22,SE,133,5.0,5.0,98,0.00,,,0.00,Wunderground v.1.13,2013-08-17 11:49:00,
2013-08-17 07:54:00,55.3,54.7,30.22,SE,132,0.0,8.0,98,0.00,,,0.00,Wunderground v.1.13,2013-08-17 11:54:00,
2013-08-17 07:59:00,55.5,54.9,30.23,SE,132,0.0,2.0,98,0.00,,,0.00,Wunderground v.1.13,2013-08-17 11:59:00,
2013-08-17 08:04:00,55.9,55.3,30.23,SE,132,0.0,1.0,98,0.00,,,0.00,Wunderground v.1.13,2013-08-17 12:04:00,
2013-08-17 08:06:00,56.0,55.4,30.23,SE,132,0.0,0.0,98,0.00,,,0.00,Wunderground v.1.13,2013-08-17 12:06:00,
2013-08-17 08:11:00,56.3,55.7,30.23,SE,132,0.0,0.0,98,0.00,,,0.00,Wunderground v.1.13,2013-08-17 12:11:00,
2013-08-17 08:16:00,56.6,56.0,30.23,SE,132,0.0,0.0,98,0.00,,,0.00,Wunderground v.1.13,2013-08-17 12:16:00,
2013-08-17 08:21:00,56.6,56.0,30.23,SE,132,0.0,1.0,98,0.00,,,0.00,Wunderground v.1.13,2013-08-17 12:21:00,
2013-08-17 08:26:00,57.1,56.5,30.23,SE,132,0.0,0.0,98,0.00,,,0.00,Wunderground v.1.13,2013-08-17 12:26:00,
2013-08-17 08:31:00,57.3,56.7,30.23,SE,132,0.0,0.0,98,0.00,,,0.00,Wunderground v.1.13,2013-08-17 12:31:00,
2013-08-17 08:36:00,57.2,56.4,30.23,SE,132,0.0,0.0,97,0.00,,,0.00,Wunderground v.1.13,2013-08-17 12:36:00,
2013-08-17 08:41:00,57.6,56.8,30.23,SE,132,0.0,0.0,97,0.00,,,0.00,Wunderground v.1.13,2013-08-17 12:41:00,
2013-08-17 08:46:00,58.0,57.2,30.23,SE,132,0.0,1.0,97,0.00,,,0.00,Wunderground v.1.13,2013-08-17 12:46:00,
2013-08-17 08:51:00,58.8,58.0,30.23,SE,132,0.0,0.0,97,0.00,,,0.00,Wunderground v.1.13,2013-08-17 12:51:00,
2013-08-17 08:56:00,59.2,58.1,30.23,SE,132,0.0,0.0,96,0.00,,,0.00,Wunderground v.1.13,2013-08-17 12:56:00,
2013-08-17 09:01:00,59.5,58.1,30.23,SE,132,0.0,0.0,95,0.00,,,0.00,Wunderground v.1.13,2013-08-17 13:01:00,
2013-08-17 09:05:00,60.3,58.6,30.23,SE,132,0.0,0.0,94,0.00,,,0.00,Wunderground v.1.13,2013-08-17 13:05:00,
2013-08-17 09:10:00,61.0,58.7,30.23,SE,132,0.0,0.0,92,0.00,,,0.00,Wunderground v.1.13,2013-08-17 13:10:00,
2013-08-17 09:15:00,61.8,58.8,30.23,SE,132,0.0,0.0,90,0.00,,,0.00,Wunderground v.1.13,2013-08-17 13:15:00,
2013-08-17 09:20:00,62.5,59.2,30.23,SE,132,0.0,0.0,89,0.00,,,0.00,Wunderground v.1.13,2013-08-17 13:20:00,
2013-08-17 09:25:00,63.2,59.3,30.22,SE,132,0.0,1.0,87,0.00,,,0.00,Wunderground v.1.13,2013-08-17 13:25:00,
2013-08-17 09:30:00,63.8,59.9,30.22,SE,132,0.0,0.0,87,0.00,,,0.00,Wunderground v.1.13,2013-08-17 13:30:00,
2013-08-17 09:35:00,64.4,59.5,30.23,SE,132,0.0,0.0,84,0.00,,,0.00,Wunderground v.1.13,2013-08-17 13:35:00,
2013-08-17 09:40:00,65.2,60.6,30.22,SE,132,0.0,1.0,85,0.00,,,0.00,Wunderground v.1.13,2013-08-17 13:40:00,
2013-08-17 09:45:00,65.9,61.3,30.22,SE,132,0.0,2.0,85,0.00,,,0.00,Wunderground v.1.13,2013-08-17 13:45:00,
2013-08-17 09:50:00,66.2,60.2,30.22,SE,132,1.0,1.0,81,0.00,,,0.00,Wunderground v.1.13,2013-08-17 13:50:00,
2013-08-17 09:55:00,67.4,60.7,30.22,SE,132,0.0,1.0,79,0.00,,,0.00,Wunderground v.1.13,2013-08-17 13:55:00,
2013-08-17 10:00:00,68.1,59.9,30.22,SE,132,4.0,4.0,75,0.00,,,0.00,Wunderground v.1.13,2013-08-17 14:00:00,
2013-08-17 10:06:00,68.5,60.3,30.22,East,98,4.0,11.0,75,0.00,,,0.00,Wunderground v.1.13,2013-08-17 14:06:00,
2013-08-17 10:11:00,69.0,58.8,30.22,East,98,1.0,2.0,70,0.00,,,0.00,Wunderground v.1.13,2013-08-17 14:11:00,
2013-08-17 10:16:00,69.4,59.2,30.22,East,89,4.0,4.0,70,0.00,,,0.00,Wunderground v.1.13,2013-08-17 14:16:00,
2013-08-17 10:21:00,70.0,59.0,30.22,East,88,3.0,4.0,68,0.00,,,0.00,Wunderground v.1.13,2013-08-17 14:21:00,
2013-08-17 10:26:00,70.2,57.9,30.22,ENE,57,2.0,7.0,65,0.00,,,0.00,Wunderground v.1.13,2013-08-17 14:26:00,
2013-08-17 10:31:00,69.9,56.7,30.22,ENE,61,4.0,5.0,63,0.00,,,0.00,Wunderground v.1.13,2013-08-17 14:31:00,
2013-08-17 10:36:00,69.8,57.1,30.22,ENE,71,0.0,4.0,64,0.00,,,0.00,Wunderground v.1.13,2013-08-17 14:36:00,
2013-08-17 10:41:00,69.9,58.9,30.21,ENE,71,4.0,6.0,68,0.00,,,0.00,Wunderground v.1.13,2013-08-17 14:41:00,
2013-08-17 10:46:00,70.6,57.4,30.22,ENE,76,0.0,3.0,63,0.00,,,0.00,Wunderground v.1.13,2013-08-17 14:46:00,
2013-08-17 10:51:00,70.6,57.8,30.22,SSE,147,6.0,7.0,64,0.00,,,0.00,Wunderground v.1.13,2013-08-17 14:51:00,
2013-08-17 10:56:00,70.9,57.7,30.22,SE,133,2.0,8.0,63,0.00,,,0.00,Wunderground v.1.13,2013-08-17 14:56:00,
2013-08-17 11:01:00,71.1,56.5,30.22,ENE,65,8.0,8.0,60,0.00,,,0.00,Wunderground v.1.13,2013-08-17 15:01:00,
2013-08-17 11:06:00,71.3,57.6,30.22,ENE,63,4.0,6.0,62,0.00,,,0.00,Wunderground v.1.13,2013-08-17 15:06:00,
2013-08-17 11:11:00,71.5,56.4,30.22,East,92,1.0,6.0,59,0.00,,,0.00,Wunderground v.1.13,2013-08-17 15:11:00,
2013-08-17 11:16:00,71.7,56.1,30.22,NE,46,2.0,5.0,58,0.00,,,0.00,Wunderground v.1.13,2013-08-17 15:16:00,
2013-08-17 11:21:00,71.8,55.3,30.22,East,81,4.0,5.0,56,0.00,,,0.00,Wunderground v.1.13,2013-08-17 15:21:00,
2013-08-17 11:26:00,72.0,54.9,30.23,ESE,115,1.0,2.0,55,0.00,,,0.00,Wunderground v.1.13,2013-08-17 15:26:00,
2013-08-17 11:31:00,72.5,57.8,30.23,ENE,76,0.0,16.0,60,0.00,,,0.00,Wunderground v.1.13,2013-08-17 15:31:00,
2013-08-17 11:36:00,72.2,57.1,30.22,ENE,65,4.0,10.0,59,0.00,,,0.00,Wunderground v.1.13,2013-08-17 15:36:00,
2013-08-17 11:41:00,72.3,57.6,30.21,SE,138,0.0,8.0,60,0.00,,,0.00,Wunderground v.1.13,2013-08-17 15:41:00,
2013-08-17 11:46:00,72.8,57.2,30.21,East,82,6.0,7.0,58,0.00,,,0.00,Wunderground v.1.13,2013-08-17 15:46:00,
2013-08-17 11:51:00,73.4,57.7,30.21,East,83,0.0,7.0,58,0.00,,,0.00,Wunderground v.1.13,2013-08-17 15:51:00,
2013-08-17 11:56:00,73.2,57.1,30.21,SE,138,1.0,4.0,57,0.00,,,0.00,Wunderground v.1.13,2013-08-17 15:56:00,
2013-08-17 12:01:00,73.0,57.8,30.21,NE,54,7.0,8.0,59,0.00,,,0.00,Wunderground v.1.13,2013-08-17 16:01:00,
2013-08-17 12:06:00,73.1,56.0,30.20,NE,49,5.0,6.0,55,0.00,,,0.00,Wunderground v.1.13,2013-08-17 16:06:00,
2013-08-17 12:11:00,73.4,53.1,30.21,SSW,196,0.0,6.0,49,0.00,,,0.00,Wunderground v.1.13,2013-08-17 16:11:00,
2013-08-17 12:16:00,73.5,52.6,30.21,SSW,194,1.0,7.0,48,0.00,,,0.00,Wunderground v.1.13,2013-08-17 16:16:00,
2013-08-17 12:21:00,73.5,51.4,30.21,NNE,16,0.0,10.0,46,0.00,,,0.00,Wunderground v.1.13,2013-08-17 16:21:00,
2013-08-17 12:26:00,73.3,53.5,30.21,East,101,7.0,12.0,50,0.00,,,0.00,Wunderground v.1.13,2013-08-17 16:26:00,
2013-08-17 12:31:00,73.9,53.0,30.21,South,182,2.0,6.0,48,0.00,,,0.00,Wunderground v.1.13,2013-08-17 16:31:00,
2013-08-17 12:36:00,74.2,54.9,30.22,SSE,160,7.0,8.0,51,0.00,,,0.00,Wunderground v.1.13,2013-08-17 16:36:00,
2013-08-17 12:41:00,73.6,54.9,30.21,NNE,32,8.0,12.0,52,0.00,,,0.00,Wunderground v.1.13,2013-08-17 16:41:00,
2013-08-17 12:46:00,73.7,55.5,30.22,ENE,59,15.0,15.0,53,0.00,,,0.00,Wunderground v.1.13,2013-08-17 16:46:00,
2013-08-17 12:51:00,74.3,56.1,30.21,East,96,5.0,11.0,53,0.00,,,0.00,Wunderground v.1.13,2013-08-17 16:51:00,
2013-08-17 12:56:00,74.5,56.8,30.21,East,89,3.0,5.0,54,0.00,,,0.00,Wunderground v.1.13,2013-08-17 16:56:00,
2013-08-17 13:01:00,74.7,56.4,30.21,SSE,148,0.0,5.0,53,0.00,,,0.00,Wunderground v.1.13,2013-08-17 17:01:00,
2013-08-17 13:06:00,74.5,55.7,30.20,South,170,1.0,2.0,52,0.00,,,0.00,Wunderground v.1.13,2013-08-17 17:06:00,
2013-08-17 13:11:00,75.2,56.4,30.20,South,169,7.0,7.0,52,0.00,,,0.00,Wunderground v.1.13,2013-08-17 17:11:00,
2013-08-17 13:16:00,75.3,57.0,30.20,ESE,102,2.0,12.0,53,0.00,,,0.00,Wunderground v.1.13,2013-08-17 17:16:00,
2013-08-17 13:21:00,74.9,56.1,30.20,East,82,2.0,12.0,52,0.00,,,0.00,Wunderground v.1.13,2013-08-17 17:21:00,
2013-08-17 13:26:00,74.7,56.9,30.20,East,84,1.0,4.0,54,0.00,,,0.00,Wunderground v.1.13,2013-08-17 17:26:00,
2013-08-17 13:31:00,75.2,57.4,30.20,ENE,74,1.0,10.0,54,0.00,,,0.00,Wunderground v.1.13,2013-08-17 17:31:00,
2013-08-17 13:36:00,74.7,57.5,30.20,East,96,6.0,11.0,55,0.00,,,0.00,Wunderground v.1.13,2013-08-17 17:36:00,
2013-08-17 13:41:00,74.3,55.5,30.20,NE,49,8.0,12.0,52,0.00,,,0.00,Wunderground v.1.13,2013-08-17 17:41:00,
2013-08-17 13:46:00,74.2,56.5,30.19,SSE,156,6.0,11.0,54,0.00,,,0.00,Wunderground v.1.13,2013-08-17 17:46:00,
2013-08-17 13:51:00,74.4,55.6,30.19,NE,42,4.0,14.0,52,0.00,,,0.00,Wunderground v.1.13,2013-08-17 17:51:00,
2013-08-17 13:56:00,74.7,55.9,30.19,ESE,112,6.0,13.0,52,0.00,,,0.00,Wunderground v.1.13,2013-08-17 17:56:00,
2013-08-17 14:01:00,74.6,56.3,30.19,South,178,2.0,8.0,53,0.00,,,0.00,Wunderground v.1.13,2013-08-17 18:01:00,
2013-08-17 14:06:00,74.8,56.0,30.20,ENE,76,6.0,8.0,52,0.00,,,0.00,Wunderground v.1.13,2013-08-17 18:06:00,
2013-08-17 14:11:00,74.3,57.1,30.19,SSE,165,5.0,5.0,55,0.00,,,0.00,Wunderground v.1.13,2013-08-17 18:11:00,
2013-08-17 14:16:00,74.1,56.4,30.19,South,187,4.0,5.0,54,0.00,,,0.00,Wunderground v.1.13,2013-08-17 18:16:00,
2013-08-17 14:21:00,73.9,56.2,30.20,SSE,154,0.0,5.0,54,0.00,,,0.00,Wunderground v.1.13,2013-08-17 18:21:00,
2013-08-17 14:26:00,74.3,56.6,30.20,East,98,5.0,13.0,54,0.00,,,0.00,Wunderground v.1.13,2013-08-17 18:26:00,
2013-08-17 14:31:00,74.7,56.9,30.20,ESE,123,4.0,12.0,54,0.00,,,0.00,Wunderground v.1.13,2013-08-17 18:31:00,
2013-08-17 14:36:00,74.4,56.7,30.20,East,90,1.0,4.0,54,0.00,,,0.00,Wunderground v.1.13,2013-08-17 18:36:00,
2013-08-17 14:41:00,74.2,56.5,30.20,NE,51,3.0,8.0,54,0.00,,,0.00,Wunderground v.1.13,2013-08-17 18:41:00,
2013-08-17 14:46:00,74.4,58.2,30.20,East,92,1.0,7.0,57,0.00,,,0.00,Wunderground v.1.13,2013-08-17 18:46:00,
2013-08-17 14:51:00,74.5,56.8,30.20,ESE,117,4.0,7.0,54,0.00,,,0.00,Wunderground v.1.13,2013-08-17 18:51:00,
2013-08-17 14:56:00,74.6,57.4,30.19,ESE,119,0.0,2.0,55,0.00,,,0.00,Wunderground v.1.13,2013-08-17 18:56:00,
2013-08-17 15:01:00,74.5,56.8,30.19,ESE,119,4.0,5.0,54,0.00,,,0.00,Wunderground v.1.13,2013-08-17 19:01:00,
2013-08-17 15:06:00,74.4,56.7,30.19,East,86,1.0,6.0,54,0.00,,,0.00,Wunderground v.1.13,2013-08-17 19:06:00,
2013-08-17 15:11:00,74.6,57.4,30.19,SE,139,4.0,9.0,55,0.00,,,0.00,Wunderground v.1.13,2013-08-17 19:11:00,
2013-08-17 15:16:00,74.4,56.2,30.19,South,169,8.0,10.0,53,0.00,,,0.00,Wunderground v.1.13,2013-08-17 19:16:00,
2013-08-17 15:21:00,74.4,57.2,30.19,SSE,153,1.0,7.0,55,0.00,,,0.00,Wunderground v.1.13,2013-08-17 19:21:00,
2013-08-17 15:26:00,74.5,56.8,30.19,SSW,205,0.0,6.0,54,0.00,,,0.00,Wunderground v.1.13,2013-08-17 19:26:00,
2013-08-17 15:31:00,74.2,56.0,30.19,SSE,153,4.0,9.0,53,0.00,,,0.00,Wunderground v.1.13,2013-08-17 19:31:00,
2013-08-17 15:36:00,74.4,57.2,30.19,SE,137,5.0,7.0,55,0.00,,,0.00,Wunderground v.1.13,2013-08-17 19:36:00,
2013-08-17 15:41:00,74.6,59.3,30.19,SSE,162,5.0,6.0,59,0.00,,,0.00,Wunderground v.1.13,2013-08-17 19:41:00,
2013-08-17 15:46:00,74.7,58.5,30.19,SSE,164,0.0,2.0,57,0.00,,,0.00,Wunderground v.1.13,2013-08-17 19:46:00,
2013-08-17 15:51:00,74.5,57.3,30.19,East,94,1.0,5.0,55,0.00,,,0.00,Wunderground v.1.13,2013-08-17 19:51:00,
2013-08-17 15:56:00,74.4,58.2,30.19,East,80,0.0,11.0,57,0.00,,,0.00,Wunderground v.1.13,2013-08-17 19:56:00,
2013-08-17 16:01:00,74.1,55.9,30.19,East,80,0.0,3.0,53,0.00,,,0.00,Wunderground v.1.13,2013-08-17 20:01:00,
2013-08-17 16:06:00,74.2,56.5,30.19,ESE,103,2.0,6.0,54,0.00,,,0.00,Wunderground v.1.13,2013-08-17 20:06:00,
2013-08-17 16:11:00,74.1,57.4,30.19,SE,145,0.0,6.0,56,0.00,,,0.00,Wunderground v.1.13,2013-08-17 20:11:00,
2013-08-17 16:16:00,74.0,57.8,30.18,East,99,0.0,3.0,57,0.00,,,0.00,Wunderground v.1.13,2013-08-17 20:16:00,
2013-08-17 16:21:00,73.9,55.7,30.18,East,99,2.0,2.0,53,0.00,,,0.00,Wunderground v.1.13,2013-08-17 20:21:00,
2013-08-17 16:26:00,74.0,57.3,30.18,SSW,198,7.0,9.0,56,0.00,,,0.00,Wunderground v.1.13,2013-08-17 20:26:00,
2013-08-17 16:32:00,74.0,57.3,30.18,East,92,0.0,3.0,56,0.00,,,0.00,Wunderground v.1.13,2013-08-17 20:32:00,
2013-08-17 16:36:00,73.8,58.1,30.18,SE,129,2.0,7.0,58,0.00,,,0.00,Wunderground v.1.13,2013-08-17 20:36:00,
2013-08-17 16:41:00,73.7,60.3,30.18,SE,128,0.0,2.0,63,0.00,,,0.00,Wunderground v.1.13,2013-08-17 20:41:00,
2013-08-17 16:46:00,73.5,59.7,30.18,SE,126,0.0,4.0,62,0.00,,,0.00,Wunderground v.1.13,2013-08-17 20:46:00,
2013-08-17 16:51:00,73.1,60.2,30.18,ESE,103,4.0,8.0,64,0.00,,,0.00,Wunderground v.1.13,2013-08-17 20:51:00,
2013-08-17 16:56:00,73.0,58.8,30.18,East,94,0.0,5.0,61,0.00,,,0.00,Wunderground v.1.13,2013-08-17 20:56:00,
2013-08-17 17:01:00,72.9,59.1,30.18,East,100,1.0,5.0,62,0.00,,,0.00,Wunderground v.1.13,2013-08-17 21:01:00,
2013-08-17 17:06:00,72.8,58.6,30.18,East,93,5.0,6.0,61,0.00,,,0.00,Wunderground v.1.13,2013-08-17 21:06:00,
2013-08-17 17:11:00,72.6,58.4,30.18,East,92,0.0,6.0,61,0.00,,,0.00,Wunderground v.1.13,2013-08-17 21:11:00,
2013-08-17 17:16:00,72.4,58.2,30.19,East,83,2.0,6.0,61,0.00,,,0.00,Wunderground v.1.13,2013-08-17 21:16:00,
2013-08-17 17:21:00,72.2,58.9,30.19,East,94,0.0,2.0,63,0.00,,,0.00,Wunderground v.1.13,2013-08-17 21:21:00,
2013-08-17 17:26:00,72.2,59.3,30.19,East,94,0.0,5.0,64,0.00,,,0.00,Wunderground v.1.13,2013-08-17 21:26:00,
2013-08-17 17:31:00,72.3,58.5,30.19,East,95,0.0,4.0,62,0.00,,,0.00,Wunderground v.1.13,2013-08-17 21:31:00,
2013-08-17 17:36:00,72.1,58.8,30.19,East,95,0.0,1.0,63,0.00,,,0.00,Wunderground v.1.13,2013-08-17 21:36:00,
2013-08-17 17:41:00,71.9,59.9,30.19,East,95,0.0,1.0,66,0.00,,,0.00,Wunderground v.1.13,2013-08-17 21:41:00,
2013-08-17 17:46:00,71.8,62.3,30.19,East,95,0.0,0.0,72,0.00,,,0.00,Wunderground v.1.13,2013-08-17 21:46:00,
2013-08-17 17:52:00,71.0,60.3,30.19,East,95,0.0,5.0,69,0.00,,,0.00,Wunderground v.1.13,2013-08-17 21:52:00,
2013-08-17 17:57:00,71.1,61.2,30.19,East,95,0.0,2.0,71,0.00,,,0.00,Wunderground v.1.13,2013-08-17 21:57:00,
2013-08-17 18:02:00,71.3,60.2,30.19,East,95,0.0,0.0,68,0.00,,,0.00,Wunderground v.1.13,2013-08-17 22:02:00,
2013-08-17 18:07:00,70.9,62.2,30.19,East,95,0.0,1.0,74,0.00,,,0.00,Wunderground v.1.13,2013-08-17 22:07:00,
2013-08-17 18:12:00,70.8,61.3,30.19,East,95,0.0,0.0,72,0.00,,,0.00,Wunderground v.1.13,2013-08-17 22:12:00,
2013-08-17 18:17:00,70.3,62.7,30.19,East,95,0.0,0.0,77,0.00,,,0.00,Wunderground v.1.13,2013-08-17 22:17:00,
2013-08-17 18:22:00,70.4,58.1,30.19,East,95,0.0,2.0,65,0.00,,,0.00,Wunderground v.1.13,2013-08-17 22:22:00,
2013-08-17 18:27:00,70.1,62.6,30.19,East,95,0.0,0.0,77,0.00,,,0.00,Wunderground v.1.13,2013-08-17 22:27:00,
2013-08-17 18:32:00,69.4,63.3,30.19,East,95,0.0,0.0,81,0.00,,,0.00,Wunderground v.1.13,2013-08-17 22:32:00,
2013-08-17 18:37:00,68.8,63.1,30.19,East,95,0.0,0.0,82,0.00,,,0.00,Wunderground v.1.13,2013-08-17 22:37:00,
2013-08-17 18:42:00,68.4,62.7,30.19,East,95,0.0,0.0,82,0.00,,,0.00,Wunderground v.1.13,2013-08-17 22:42:00,
2013-08-17 18:47:00,68.1,62.7,30.19,East,95,0.0,1.0,83,0.00,,,0.00,Wunderground v.1.13,2013-08-17 22:47:00,
2013-08-17 18:52:00,67.9,62.9,30.20,East,95,0.0,0.0,84,0.00,,,0.00,Wunderground v.1.13,2013-08-17 22:52:00,
2013-08-17 18:57:00,67.7,62.7,30.19,East,95,0.0,0.0,84,0.00,,,0.00,Wunderground v.1.13,2013-08-17 22:57:00,
2013-08-17 19:02:00,67.5,62.5,30.19,East,95,0.0,0.0,84,0.00,,,0.00,Wunderground v.1.13,2013-08-17 23:02:00,
2013-08-17 19:07:00,67.4,62.4,30.19,East,95,0.0,0.0,84,0.00,,,0.00,Wunderground v.1.13,2013-08-17 23:07:00,
2013-08-17 19:12:00,67.1,62.4,30.19,East,95,0.0,0.0,85,0.00,,,0.00,Wunderground v.1.13,2013-08-17 23:12:00,
2013-08-17 19:17:00,66.8,62.1,30.19,East,95,0.0,0.0,85,0.00,,,0.00,Wunderground v.1.13,2013-08-17 23:17:00,
2013-08-17 19:22:00,66.5,62.2,30.19,East,95,0.0,0.0,86,0.00,,,0.00,Wunderground v.1.13,2013-08-17 23:22:00,
2013-08-17 19:27:00,66.0,62.0,30.19,East,95,0.0,0.0,87,0.00,,,0.00,Wunderground v.1.13,2013-08-17 23:27:00,
2013-08-17 19:32:00,65.7,62.0,30.19,East,95,0.0,0.0,88,0.00,,,0.00,Wunderground v.1.13,2013-08-17 23:32:00,
2013-08-17 19:37:00,65.4,61.8,30.19,East,95,0.0,0.0,88,0.00,,,0.00,Wunderground v.1.13,2013-08-17 23:37:00,
2013-08-17 19:42:00,64.9,61.3,30.19,East,95,0.0,0.0,88,0.00,,,0.00,Wunderground v.1.13,2013-08-17 23:42:00,
2013-08-17 19:47:00,64.5,60.9,30.19,East,93,0.0,0.0,88,0.00,,,0.00,Wunderground v.1.13,2013-08-17 23:47:00,
2013-08-17 19:52:00,64.0,60.7,30.19,East,92,0.0,0.0,89,0.00,,,0.00,Wunderground v.1.13,2013-08-17 23:52:00,
2013-08-17 19:57:00,63.6,60.3,30.19,East,93,0.0,0.0,89,0.00,,,0.00,Wunderground v.1.13,2013-08-17 23:57:00,
2013-08-17 20:02:00,63.3,60.3,30.19,East,92,0.0,0.0,90,0.00,,,0.00,Wunderground v.1.13,2013-08-18 00:02:00,
2013-08-17 20:07:00,62.8,59.8,30.19,East,93,0.0,0.0,90,0.00,,,0.00,Wunderground v.1.13,2013-08-18 00:07:00,
2013-08-17 20:12:00,62.4,59.4,30.19,East,92,0.0,0.0,90,0.00,,,0.00,Wunderground v.1.13,2013-08-18 00:12:00,
2013-08-17 20:17:00,62.2,59.2,30.20,East,92,0.0,0.0,90,0.00,,,0.00,Wunderground v.1.13,2013-08-18 00:17:00,
2013-08-17 20:22:00,61.9,59.2,30.19,East,93,0.0,0.0,91,0.00,,,0.00,Wunderground v.1.13,2013-08-18 00:22:00,
2013-08-17 20:27:00,61.7,59.0,30.19,East,92,0.0,0.0,91,0.00,,,0.00,Wunderground v.1.13,2013-08-18 00:27:00,
2013-08-17 20:32:00,61.5,58.8,30.19,East,92,0.0,0.0,91,0.00,,,0.00,Wunderground v.1.13,2013-08-18 00:32:00,
2013-08-17 20:37:00,61.2,58.6,30.19,East,93,0.0,0.0,91,0.00,,,0.00,Wunderground v.1.13,2013-08-18 00:37:00,
2013-08-17 20:42:00,61.0,58.7,30.20,East,93,0.0,0.0,92,0.00,,,0.00,Wunderground v.1.13,2013-08-18 00:42:00,
2013-08-17 20:47:00,60.9,58.6,30.20,East,93,0.0,0.0,92,0.00,,,0.00,Wunderground v.1.13,2013-08-18 00:47:00,
2013-08-17 20:52:00,60.7,58.7,30.19,East,92,0.0,0.0,93,0.00,,,0.00,Wunderground v.1.13,2013-08-18 00:52:00,
2013-08-17 20:57:00,60.6,58.6,30.19,East,93,0.0,0.0,93,0.00,,,0.00,Wunderground v.1.13,2013-08-18 00:57:00,
2013-08-17 21:02:00,60.4,58.4,30.19,East,92,0.0,0.0,93,0.00,,,0.00,Wunderground v.1.13,2013-08-18 01:02:00,
2013-08-17 21:07:00,60.2,58.2,30.19,East,93,0.0,0.0,93,0.00,,,0.00,Wunderground v.1.13,2013-08-18 01:07:00,
2013-08-17 21:12:00,60.0,58.0,30.19,East,93,0.0,0.0,93,0.00,,,0.00,Wunderground v.1.13,2013-08-18 01:12:00,
2013-08-17 21:17:00,59.9,58.2,30.20,East,92,0.0,0.0,94,0.00,,,0.00,Wunderground v.1.13,2013-08-18 01:17:00,
2013-08-17 21:22:00,59.8,58.1,30.20,East,93,0.0,0.0,94,0.00,,,0.00,Wunderground v.1.13,2013-08-18 01:22:00,
2013-08-17 21:27:00,59.7,58.0,30.20,East,92,0.0,0.0,94,0.00,,,0.00,Wunderground v.1.13,2013-08-18 01:27:00,
2013-08-17 21:32:00,59.6,57.9,30.19,East,93,0.0,0.0,94,0.00,,,0.00,Wunderground v.1.13,2013-08-18 01:32:00,
2013-08-17 21:37:00,59.6,58.2,30.20,East,93,0.0,0.0,95,0.00,,,0.00,Wunderground v.1.13,2013-08-18 01:37:00,
2013-08-17 21:42:00,59.5,57.8,30.19,East,92,0.0,0.0,94,0.00,,,0.00,Wunderground v.1.13,2013-08-18 01:42:00,
2013-08-17 21:47:00,59.4,57.7,30.19,East,92,0.0,0.0,94,0.00,,,0.00,Wunderground v.1.13,2013-08-18 01:47:00,
2013-08-17 21:52:00,59.3,57.9,30.19,East,93,0.0,0.0,95,0.00,,,0.00,Wunderground v.1.13,2013-08-18 01:52:00,
2013-08-17 21:57:00,59.2,57.8,30.19,East,93,0.0,0.0,95,0.00,,,0.00,Wunderground v.1.13,2013-08-18 01:57:00,
2013-08-17 22:02:00,59.2,57.8,30.20,East,93,0.0,0.0,95,0.00,,,0.00,Wunderground v.1.13,2013-08-18 02:02:00,
2013-08-17 22:07:00,59.1,57.7,30.20,East,93,0.0,0.0,95,0.00,,,0.00,Wunderground v.1.13,2013-08-18 02:07:00,
2013-08-17 22:12:00,59.1,57.7,30.20,East,93,0.0,0.0,95,0.00,,,0.00,Wunderground v.1.13,2013-08-18 02:12:00,
2013-08-17 22:17:00,59.1,57.7,30.19,East,92,0.0,0.0,95,0.00,,,0.00,Wunderground v.1.13,2013-08-18 02:17:00,
2013-08-17 22:22:00,59.1,57.7,30.19,East,92,0.0,0.0,95,0.00,,,0.00,Wunderground v.1.13,2013-08-18 02:22:00,
2013-08-17 22:27:00,59.1,57.7,30.20,East,92,0.0,0.0,95,0.00,,,0.00,Wunderground v.1.13,2013-08-18 02:27:00,
2013-08-17 22:32:00,59.0,58.4,30.20,East,92,0.0,1.0,98,0.00,,,0.00,Wunderground v.1.13,2013-08-18 02:32:00,
2013-08-17 22:37:00,59.0,57.9,30.19,East,92,0.0,1.0,96,0.00,,,0.00,Wunderground v.1.13,2013-08-18 02:37:00,
2013-08-17 22:42:00,59.1,58.0,30.19,East,93,0.0,0.0,96,0.00,,,0.00,Wunderground v.1.13,2013-08-18 02:42:00,
2013-08-17 22:47:00,59.1,58.0,30.19,East,92,0.0,0.0,96,0.00,,,0.00,Wunderground v.1.13,2013-08-18 02:47:00,
2013-08-17 22:52:00,59.0,57.6,30.19,East,93,0.0,0.0,95,0.00,,,0.00,Wunderground v.1.13,2013-08-18 02:52:00,
2013-08-17 22:57:00,59.0,57.9,30.19,East,92,0.0,0.0,96,0.00,,,0.00,Wunderground v.1.13,2013-08-18 02:57:00,
2013-08-17 23:02:00,59.0,57.9,30.19,East,93,0.0,1.0,96,0.00,,,0.00,Wunderground v.1.13,2013-08-18 03:02:00,
2013-08-17 23:07:00,59.1,58.0,30.19,East,93,0.0,5.0,96,0.00,,,0.00,Wunderground v.1.13,2013-08-18 03:07:00,
2013-08-17 23:12:00,59.2,58.1,30.19,East,100,5.0,5.0,96,0.00,,,0.00,Wunderground v.1.13,2013-08-18 03:12:00,
2013-08-17 23:17:00,59.3,58.2,30.18,ESE,115,0.0,5.0,96,0.00,,,0.00,Wunderground v.1.13,2013-08-18 03:17:00,
2013-08-17 23:22:00,59.3,58.2,30.18,ESE,115,0.0,4.0,96,0.00,,,0.00,Wunderground v.1.13,2013-08-18 03:22:00,
2013-08-17 23:27:00,59.2,58.1,30.18,ESE,115,0.0,1.0,96,0.00,,,0.00,Wunderground v.1.13,2013-08-18 03:27:00,
2013-08-17 23:32:00,59.2,58.1,30.18,ESE,115,0.0,0.0,96,0.00,,,0.00,Wunderground v.1.13,2013-08-18 03:32:00,
2013-08-17 23:37:00,59.2,58.1,30.18,ESE,115,0.0,1.0,96,0.00,,,0.00,Wunderground v.1.13,2013-08-18 03:37:00,
2013-08-17 23:42:00,59.4,58.3,30.17,ESE,112,0.0,6.0,96,0.00,,,0.00,Wunderground v.1.13,2013-08-18 03:42:00,
2013-08-17 23:47:00,59.5,58.4,30.18,ESE,112,0.0,0.0,96,0.00,,,0.00,Wunderground v.1.13,2013-08-18 03:47:00,
2013-08-17 23:52:00,59.7,58.6,30.18,ESE,112,0.0,2.0,96,0.00,,,0.00,Wunderground v.1.13,2013-08-18 03:52:00,
2013-08-17 23:57:00,59.7,58.6,30.17,East,79,0.0,8.0,96,0.00,,,0.00,Wunderground v.1.13,2013-08-18 03:57:00,